[[{"header":{"parameterUnit":"m.s-1","parameterCategory":1,"la1":30.2991,"la2":30.254,"lo1":-89.0895,"lo2":-89.0444,"dy":0.0017,"dx":0.0017,"nx":28,"ny":28,"refTime":"2023-04-17T15:00:00:Z","depth":0,"parameterNumber":2,"parameterNumberName":"U-component_of_WINDS"},"data":[0,0,0,0,0,0,0,0,0,0,0,0,0,0,0,0,0,0,0,0,0,0,0,0,0,0,0,0,0,0,0,0,0,0,0,0,0,0,0,0,0,0,0,0,0,0,0,0,0,0,0,0,0,0,0,0,0,0,1.6769,1.677,0,1.6882,1.6883,1.6884,1.6912,1.6911,1.6911,1.691,1.7028,1.7032,1.7036,0,0,0,0,0,0,0,0,0,0,0,0,0,1.6581,1.6585,1.6769,1.677,1.6772,1.6881,1.6883,1.6884,1.6912,1.6911,1.6911,1.691,1.7027,1.7031,1.7036,0,0,0,0,0,0,0,0,0,0,0,0,0,1.6675,1.6586,1.6769,1.6799,1.6802,1.6881,1.6883,1.6885,1.6913,1.6911,1.691,1.6909,1.7025,1.7031,1.7037,1.7094,0,0,1.7054,1.7057,0,0,0,0,0,0,0,0,1.667,1.6682,1.6793,1.6797,1.6801,1.6882,1.686,1.6955,1.6913,1.6871,1.691,1.6909,1.6981,1.699,1.7014,1.71,1.7105,1.7055,1.7058,1.7061,1.7062,0,0,0,0,0,0,0,1.6663,1.6678,1.6813,1.6794,1.68,1.6808,1.682,1.6878,1.6931,1.6874,1.6877,1.689,1.6983,1.7008,1.7016,1.7106,1.7055,1.706,1.7063,1.7065,1.7248,1.7249,0,0,0,0,0,0,1.6651,1.6672,1.681,1.6817,1.6731,1.6812,1.6826,1.6857,1.693,1.694,1.689,1.689,1.6999,1.701,1.7021,1.7094,1.7061,1.7066,1.7069,1.7246,1.7248,1.7249,0,0,0,0,0,0,1.6647,1.6663,1.6805,1.6745,1.6764,1.6816,1.6851,1.686,1.6885,1.6942,1.6952,1.6906,1.6998,1.7013,1.7076,1.7099,1.7069,1.7074,1.7245,1.7247,1.7249,1.724,0,0,0,0,0,0,1.6642,1.6662,1.6683,1.6745,1.6767,1.6857,1.6853,1.6863,1.6895,1.6896,1.696,1.6969,1.6998,1.7067,1.7082,1.7106,1.7078,1.7243,1.7246,1.7248,1.7239,1.7242,1.7245,0,0,0,0,0,1.6635,1.6676,1.6684,1.67,1.6794,1.6859,1.6871,1.6903,1.6896,1.6919,1.6956,1.6967,1.7094,1.7073,1.709,1.7116,1.7242,1.7245,1.7248,1.7238,1.7241,1.7245,0,0,0,0,0,0,1.6616,1.6685,1.6694,1.6757,1.6802,1.6863,1.6893,1.6906,1.6954,1.6953,1.6992,1.7006,1.7067,1.7098,1.7074,1.7177,1.7168,1.7174,1.7154,1.7158,1.7161,1.7153,1.7083,0,0,0,0,0,1.6619,1.6664,1.6722,1.6772,1.6794,1.6839,1.6869,1.6889,1.6938,1.6957,1.6999,1.7046,1.7097,1.7129,1.7179,1.7244,1.7259,1.727,1.7273,1.7275,1.728,1.7319,1.7325,1.726,1.726,1.726,0,0,1.6625,1.6669,1.6695,1.6769,1.6807,1.6854,1.6855,1.6905,1.6941,1.6965,1.7027,1.706,1.7115,1.718,1.721,1.7207,1.7302,1.7279,1.728,1.7285,1.7323,1.7329,1.7334,1.7262,1.7262,1.7261,0,0,1.6662,1.6699,1.6745,1.6782,1.6839,1.6869,1.688,1.694,1.6962,1.7025,1.7045,1.7089,1.7175,1.7214,1.7245,1.7299,1.7312,1.7314,1.7329,1.7366,1.7371,1.7376,1.7396,1.7403,1.7319,1.7319,1.7319,0,1.6664,1.6735,1.6767,1.6817,1.6849,1.6873,1.6921,1.6956,1.7026,1.7049,1.7044,1.7154,1.7193,1.7268,1.7281,1.7305,1.732,1.7307,1.7368,1.7373,1.7378,1.7398,1.7405,1.7319,1.7319,1.7319,1.7319,0,1.6735,1.6784,1.6815,1.6881,1.6918,1.6966,1.7007,1.704,1.7059,1.709,1.7155,1.7203,1.7263,1.7282,1.73,1.7361,1.7357,1.736,1.7351,1.7383,1.7403,1.7411,1.7319,1.7319,1.7319,1.7319,0,0,1.6762,1.6847,1.6857,1.6889,1.6953,1.6993,1.7043,1.7101,1.713,1.7178,1.7222,1.7295,1.7298,1.7333,1.7356,1.7389,1.743,1.7388,1.739,1.7395,1.7501,1.75,1.7508,1.7439,1.744,1.7442,1.7497,0,1.6808,1.6897,1.6929,1.7003,1.705,1.7074,1.7118,1.7163,1.7194,1.7239,1.7274,1.7325,1.7325,1.7347,1.738,1.7418,1.7452,1.7414,1.7482,1.7484,1.7468,1.7518,1.7516,1.7566,1.7505,1.7506,1.7507,0,1.6872,1.6921,1.7,1.706,1.7081,1.712,1.7177,1.7219,1.7272,1.7292,1.7332,1.7354,1.7409,1.7397,1.7475,1.7448,1.7478,1.7501,1.7504,1.7512,1.7498,1.7528,1.7582,1.759,1.7519,1.7518,1.7517,0,1.6886,1.6971,1.703,1.7056,1.7127,1.7154,1.7185,1.7236,1.727,1.7321,1.7343,1.7399,1.7431,1.7474,1.7511,1.7499,1.7586,1.7577,1.7606,1.7605,1.7623,1.7622,1.7684,1.7641,1.7641,1.7641,1.7641,0,1.6934,1.6982,1.7037,1.7073,1.7128,1.7165,1.7218,1.7251,1.7297,1.7341,1.7365,1.7406,1.7452,1.7499,1.7528,1.7589,1.7603,1.7622,1.7629,1.762,1.7618,1.7641,1.7639,1.7643,1.7642,1.7642,1.7642,0,1.6958,1.6997,1.7063,1.7125,1.7142,1.718,1.7234,1.7271,1.7303,1.7359,1.7374,1.7425,1.7482,1.7523,1.7597,1.7616,1.7682,1.7689,1.7664,1.7668,1.7695,1.7693,1.7775,1.7788,1.7735,1.7736,1.7736,0,1.6987,1.7024,1.709,1.7121,1.7152,1.7202,1.7237,1.7275,1.731,1.7374,1.7404,1.7462,1.7512,1.7603,1.7647,1.7704,1.7713,1.7738,1.7722,1.7712,1.7715,1.7713,1.7717,1.774,1.7741,1.7741,1.7741,0,1.7033,1.7051,1.71,1.7156,1.7196,1.7242,1.7289,1.7313,1.7359,1.7398,1.7457,1.7495,1.7571,1.763,1.7692,1.7725,1.7742,1.7746,1.7756,1.7748,1.7732,1.7742,1.7672,1.7744,1.7744,1.7744,1.7743,1.7743,1.7062,1.7097,1.7149,1.7203,1.7242,1.7285,1.7323,1.736,1.741,1.7474,1.7494,1.7555,1.7609,1.7693,1.7728,1.7777,1.7776,1.779,1.7794,1.7797,1.7797,1.7724,1.7789,1.7789,1.7789,1.7789,1.7789,0,1.7111,1.7146,1.7195,1.7259,1.7302,1.7313,1.7366,1.7401,1.7454,1.7502,1.7551,1.7619,1.7677,1.7726,1.7786,1.7816,1.7826,1.7831,1.7829,1.7837,1.7794,1.778,1.7823,1.7823,1.7822,1.7822,1.7822,1.7822,1.7141,1.7202,1.7226,1.7306,1.7341,1.7401,1.743,1.7471,1.751,1.7585,1.7632,1.7664,1.7713,1.7777,1.7831,1.7844,1.7866,1.787,1.7885,1.7844,1.784,1.7836,1.7823,1.7874,1.7874,1.7924,1.7924,1.7925]},{"header":{"parameterUnit":"m.s-1","parameterCategory":1,"la1":30.2991,"la2":30.254,"lo1":-89.0895,"lo2":-89.0444,"dy":0.0017,"dx":0.0017,"nx":28,"ny":28,"refTime":"2023-04-17T15:00:00:Z","depth":0,"parameterNumber":3,"parameterNumberName":"V-component_of_WINDS"},"data":[0,0,0,0,0,0,0,0,0,0,0,0,0,0,0,0,0,0,0,0,0,0,0,0,0,0,0,0,0,0,0,0,0,0,0,0,0,0,0,0,0,0,0,0,0,0,0,0,0,0,0,0,0,0,0,0,0,0,-0.5294,-0.5294,0,-0.5305,-0.5305,-0.5305,-0.5387,-0.5389,-0.5391,-0.5393,-0.5401,-0.5399,-0.5397,0,0,0,0,0,0,0,0,0,0,0,0,0,-0.5343,-0.5342,-0.5294,-0.5294,-0.5294,-0.5305,-0.5305,-0.5305,-0.5386,-0.5389,-0.5391,-0.5394,-0.5401,-0.5399,-0.5397,0,0,0,0,0,0,0,0,0,0,0,0,0,-0.5334,-0.5341,-0.5294,-0.5336,-0.534,-0.5305,-0.5305,-0.5305,-0.5386,-0.5389,-0.5392,-0.5395,-0.5402,-0.5399,-0.5397,-0.5321,0,0,-0.5389,-0.5388,0,0,0,0,0,0,0,0,-0.5335,-0.5333,-0.533,-0.5333,-0.5338,-0.5348,-0.5325,-0.531,-0.5385,-0.5368,-0.5393,-0.5396,-0.538,-0.538,-0.5375,-0.5321,-0.5322,-0.5389,-0.5387,-0.5386,-0.5386,0,0,0,0,0,0,0,-0.5335,-0.5333,-0.5298,-0.533,-0.5335,-0.5354,-0.5357,-0.5323,-0.5357,-0.537,-0.5376,-0.5376,-0.5383,-0.5377,-0.5376,-0.5322,-0.5389,-0.5387,-0.5385,-0.5384,-0.521,-0.5207,0,0,0,0,0,0,-0.533,-0.5333,-0.5298,-0.5299,-0.5344,-0.5351,-0.5354,-0.5341,-0.5358,-0.5363,-0.5374,-0.538,-0.538,-0.5379,-0.5376,-0.5291,-0.5386,-0.5384,-0.5383,-0.5213,-0.5209,-0.5206,0,0,0,0,0,0,-0.5331,-0.5326,-0.5298,-0.5317,-0.5315,-0.5347,-0.5333,-0.534,-0.5334,-0.5361,-0.5367,-0.5362,-0.5382,-0.538,-0.5335,-0.5292,-0.5383,-0.5381,-0.5217,-0.5212,-0.5208,-0.5118,0,0,0,0,0,0,-0.5332,-0.5326,-0.5298,-0.5316,-0.5314,-0.5256,-0.533,-0.5338,-0.533,-0.5339,-0.5351,-0.5356,-0.5385,-0.5338,-0.5333,-0.5291,-0.5379,-0.5221,-0.5215,-0.5209,-0.5125,-0.5111,-0.5099,0,0,0,0,0,-0.5334,-0.527,-0.5296,-0.5291,-0.5279,-0.5253,-0.5252,-0.5287,-0.5326,-0.5298,-0.5316,-0.5356,-0.5298,-0.5333,-0.5327,-0.5284,-0.5224,-0.5216,-0.521,-0.5131,-0.5114,-0.5099,0,0,0,0,0,0,-0.5244,-0.5274,-0.5302,-0.5243,-0.5245,-0.5267,-0.5232,-0.5267,-0.5257,-0.5266,-0.5309,-0.5311,-0.526,-0.5267,-0.5306,-0.5213,-0.5268,-0.5259,-0.521,-0.5194,-0.5181,-0.5181,-0.5377,0,0,0,0,0,-0.5218,-0.5195,-0.5222,-0.5167,-0.5168,-0.52,-0.519,-0.5217,-0.5221,-0.5222,-0.5236,-0.5237,-0.522,-0.5207,-0.5192,-0.5127,-0.5132,-0.5094,-0.5081,-0.507,-0.5062,-0.5031,-0.5016,-0.5183,-0.5183,-0.5183,0,0,-0.5162,-0.5176,-0.5159,-0.515,-0.5155,-0.5131,-0.52,-0.517,-0.5153,-0.5217,-0.5177,-0.5187,-0.5191,-0.5137,-0.5113,-0.5141,-0.5018,-0.5061,-0.5052,-0.5051,-0.5022,-0.5006,-0.4992,-0.5178,-0.5179,-0.518,0,0,-0.505,-0.5057,-0.5015,-0.5019,-0.5027,-0.5049,-0.5039,-0.5056,-0.5066,-0.5027,-0.5075,-0.5055,-0.5023,-0.5025,-0.5022,-0.4915,-0.4952,-0.4908,-0.484,-0.4809,-0.4796,-0.4785,-0.4748,-0.4734,-0.49,-0.49,-0.49,0,-0.498,-0.4947,-0.4987,-0.4957,-0.4952,-0.5011,-0.4968,-0.497,-0.4971,-0.4967,-0.4999,-0.4963,-0.497,-0.4918,-0.4892,-0.4887,-0.4878,-0.4907,-0.4795,-0.4784,-0.4774,-0.4739,-0.4725,-0.4895,-0.4896,-0.4896,-0.4897,0,-0.4862,-0.4838,-0.4802,-0.4805,-0.4797,-0.4759,-0.4795,-0.4781,-0.481,-0.4829,-0.4789,-0.48,-0.479,-0.478,-0.4806,-0.4732,-0.475,-0.4787,-0.4843,-0.4752,-0.4721,-0.4708,-0.4888,-0.4889,-0.4891,-0.4892,0,0,-0.4692,-0.472,-0.4706,-0.471,-0.4724,-0.4706,-0.4673,-0.4665,-0.4654,-0.4653,-0.4627,-0.4601,-0.4637,-0.4633,-0.4661,-0.4633,-0.455,-0.4675,-0.4676,-0.4653,-0.4472,-0.4445,-0.4429,-0.4575,-0.4573,-0.4571,-0.4473,0,-0.4586,-0.4531,-0.4568,-0.4508,-0.4487,-0.4544,-0.4516,-0.4521,-0.4539,-0.4524,-0.4543,-0.4525,-0.4572,-0.4571,-0.4547,-0.4565,-0.4515,-0.4573,-0.4552,-0.4551,-0.455,-0.4412,-0.4383,-0.4289,-0.446,-0.4458,-0.4457,0,-0.4454,-0.4451,-0.4389,-0.4411,-0.4404,-0.4377,-0.4375,-0.4359,-0.4368,-0.4383,-0.438,-0.4416,-0.4385,-0.444,-0.44,-0.4439,-0.4432,-0.444,-0.4438,-0.4438,-0.4499,-0.441,-0.426,-0.4247,-0.4437,-0.4439,-0.444,0,-0.4339,-0.4319,-0.428,-0.4281,-0.4305,-0.4285,-0.4294,-0.4306,-0.4299,-0.4297,-0.4294,-0.4286,-0.4283,-0.4277,-0.431,-0.4347,-0.4266,-0.4323,-0.4278,-0.4277,-0.4259,-0.426,-0.4107,-0.4252,-0.4252,-0.4253,-0.4253,0,-0.4217,-0.4177,-0.4229,-0.4205,-0.4163,-0.4207,-0.4164,-0.4178,-0.4189,-0.4169,-0.4217,-0.4198,-0.4242,-0.4227,-0.4253,-0.4217,-0.4214,-0.4226,-0.4234,-0.4223,-0.4221,-0.4219,-0.4227,-0.4249,-0.425,-0.425,-0.4251,0,-0.4081,-0.4114,-0.4076,-0.4103,-0.4109,-0.4077,-0.41,-0.4079,-0.4101,-0.4076,-0.4072,-0.4106,-0.4092,-0.4125,-0.4114,-0.4132,-0.4081,-0.4097,-0.4078,-0.4084,-0.4038,-0.4043,-0.388,-0.3862,-0.4017,-0.4015,-0.4014,0,-0.4001,-0.3973,-0.3998,-0.3989,-0.3996,-0.3981,-0.3976,-0.4018,-0.4011,-0.402,-0.3999,-0.3989,-0.3983,-0.3957,-0.3981,-0.3974,-0.3992,-0.3936,-0.3991,-0.3982,-0.3993,-0.3995,-0.3994,-0.3924,-0.3922,-0.3921,-0.3919,0,-0.3858,-0.3877,-0.3868,-0.3866,-0.386,-0.386,-0.3863,-0.3853,-0.3898,-0.3888,-0.3875,-0.387,-0.3862,-0.3852,-0.385,-0.386,-0.3897,-0.3902,-0.3892,-0.388,-0.3871,-0.3878,-0.4049,-0.3905,-0.3907,-0.3908,-0.3909,-0.3909,-0.3749,-0.3727,-0.3743,-0.3733,-0.374,-0.3743,-0.3726,-0.3748,-0.3738,-0.3735,-0.376,-0.3743,-0.3754,-0.3757,-0.3763,-0.375,-0.3775,-0.3759,-0.3756,-0.3752,-0.3745,-0.3873,-0.3749,-0.375,-0.375,-0.375,-0.3751,0,-0.361,-0.3623,-0.3613,-0.3618,-0.3611,-0.3649,-0.3655,-0.3646,-0.3631,-0.3639,-0.3634,-0.362,-0.3612,-0.3635,-0.3631,-0.3616,-0.3633,-0.3613,-0.3615,-0.3617,-0.3721,-0.3732,-0.3599,-0.3599,-0.3599,-0.36,-0.36,-0.36,-0.3536,-0.3503,-0.3524,-0.3496,-0.3509,-0.3494,-0.3495,-0.3498,-0.3506,-0.3489,-0.3483,-0.3499,-0.3515,-0.3512,-0.3506,-0.3513,-0.351,-0.3484,-0.3498,-0.3595,-0.3609,-0.3624,-0.3634,-0.3483,-0.3483,-0.3395,-0.3394,-0.3394]}]]